Terug naar catalogus

DELTA 1 DEB

ActiefSSO
NORAD 12216·DEBRIS·🇺🇸 United States

Gelanceerd Mar 5, 1978 vanaf Vandenberg Space Force Base

Loading…

Volgende Passages (komende 24 uur)

TLE

VersSource: Space-Track

Epoch: Sep 14, 2026, 06:40 UTC

1 12216U 78026BH  26257.27829227  .00000920  00000-0  54889-3 0  9994
2 12216  99.1119  17.0127 0181997 237.5677 120.7773 14.01916138306329

Volg DELTA 1 DEB in realtime met AllMySat

Download on the App Store